[[{"header":{"parameterUnit":"m.s-1","parameterCategory":1,"la1":30.2991,"la2":30.254,"lo1":-89.0895,"lo2":-89.0444,"dy":0.0017,"dx":0.0017,"nx":28,"ny":28,"refTime":"2025-02-13T09:00:00:Z","depth":0,"parameterNumber":2,"parameterNumberName":"U-component_of_WINDS"},"data":[0,0,0,0,0,0,0,0,0,0,0,0,0,0,0,0,0,0,0,0,0,0,0,0,0,0,0,0,0,0,0,0,0,0,0,0,0,0,0,0,0,0,0,0,0,0,0,0,0,0,0,0,0,0,0,0,0,0,-4.6615,-4.6616,0,-4.6686,-4.6687,-4.6688,-4.6566,-4.6562,-4.6558,-4.6554,-4.6629,-4.6634,-4.664,0,0,0,0,0,0,0,0,0,0,0,0,0,-4.6376,-4.6381,-4.6615,-4.6616,-4.6617,-4.6686,-4.6687,-4.6688,-4.6567,-4.6562,-4.6557,-4.6552,-4.6627,-4.6633,-4.664,0,0,0,0,0,0,0,0,0,0,0,0,0,-4.6467,-4.6382,-4.6615,-4.6565,-4.6561,-4.6686,-4.6687,-4.6688,-4.6568,-4.6562,-4.6556,-4.655,-4.6624,-4.6633,-4.6641,-4.6819,0,0,-4.6668,-4.6672,0,0,0,0,0,0,0,0,-4.6462,-4.6476,-4.6572,-4.6569,-4.6565,-4.6611,-4.663,-4.6732,-4.657,-4.6566,-4.6554,-4.6547,-4.6628,-4.6636,-4.6663,-4.6822,-4.6825,-4.6669,-4.6674,-4.6678,-4.668,0,0,0,0,0,0,0,-4.6455,-4.6472,-4.6643,-4.6573,-4.6569,-4.6539,-4.6545,-4.6648,-4.6631,-4.6565,-4.6557,-4.6567,-4.6625,-4.6655,-4.6664,-4.6827,-4.6669,-4.6676,-4.6682,-4.6685,-4.7134,-4.714,0,0,0,0,0,0,-4.6455,-4.6467,-4.6641,-4.6645,-4.6497,-4.6548,-4.6555,-4.6602,-4.6629,-4.6627,-4.6572,-4.6561,-4.6643,-4.6654,-4.6666,-4.6875,-4.6678,-4.6686,-4.6691,-4.7127,-4.7135,-4.7143,0,0,0,0,0,0,-4.6451,-4.6472,-4.6638,-4.6554,-4.6573,-4.6559,-4.6613,-4.6607,-4.6637,-4.6634,-4.663,-4.6606,-4.6638,-4.6653,-4.6781,-4.6876,-4.669,-4.6698,-4.7119,-4.713,-4.7139,-4.7295,0,0,0,0,0,0,-4.6444,-4.6471,-4.6538,-4.6557,-4.6578,-4.6753,-4.6619,-4.6613,-4.6652,-4.6638,-4.6665,-4.6663,-4.6635,-4.6769,-4.679,-4.6885,-4.6705,-4.7111,-4.7124,-4.7136,-4.7282,-4.731,-4.7333,0,0,0,0,0,-4.6436,-4.658,-4.6542,-4.6564,-4.6662,-4.6759,-4.6771,-4.6735,-4.666,-4.6728,-4.6725,-4.6662,-4.6862,-4.6783,-4.6806,-4.6904,-4.7105,-4.712,-4.7135,-4.727,-4.7304,-4.7333,0,0,0,0,0,0,-4.6575,-4.6582,-4.654,-4.6694,-4.6727,-4.6738,-4.6823,-4.6772,-4.6827,-4.6812,-4.6765,-4.6772,-4.6909,-4.6919,-4.6831,-4.7077,-4.6971,-4.6991,-4.7066,-4.7098,-4.7123,-4.7119,-4.6712,0,0,0,0,0,-4.6623,-4.6701,-4.6703,-4.6839,-4.6857,-4.6837,-4.6878,-4.6847,-4.6879,-4.6893,-4.69,-4.6934,-4.7003,-4.7051,-4.7115,-4.7282,-4.7286,-4.7361,-4.7386,-4.7407,-4.7426,-4.7515,-4.7548,-4.7192,-4.7192,-4.7192,0,0,-4.6724,-4.6737,-4.679,-4.6867,-4.6888,-4.697,-4.685,-4.6942,-4.7002,-4.6907,-4.7028,-4.7034,-4.7069,-4.7217,-4.7282,-4.7229,-4.7525,-4.7427,-4.7444,-4.7451,-4.7534,-4.7567,-4.7597,-4.7202,-4.7201,-4.7199,0,0,-4.695,-4.6968,-4.7083,-4.7107,-4.714,-4.7126,-4.7153,-4.7172,-4.7173,-4.7293,-4.7223,-4.7294,-4.7416,-4.7443,-4.7473,-4.7708,-4.7652,-4.773,-4.7865,-4.7952,-4.798,-4.8004,-4.8089,-4.8119,-4.7748,-4.7748,-4.7749,0,-4.7072,-4.7192,-4.7149,-4.7245,-4.7281,-4.7197,-4.7313,-4.7338,-4.7392,-4.7419,-4.7358,-4.7508,-4.7526,-4.7678,-4.7736,-4.7762,-4.7793,-4.7727,-4.7979,-4.8003,-4.8026,-4.8106,-4.8137,-4.7758,-4.7757,-4.7756,-4.7755,0,-4.734,-4.7425,-4.7513,-4.7566,-4.7612,-4.7718,-4.769,-4.7742,-4.7706,-4.7698,-4.7821,-4.7839,-4.7905,-4.7938,-4.7905,-4.8087,-4.8053,-4.7987,-4.7879,-4.807,-4.8144,-4.8174,-4.7771,-4.7768,-4.7765,-4.7763,0,0,-4.7658,-4.7684,-4.7717,-4.774,-4.777,-4.7835,-4.7936,-4.8,-4.8045,-4.8084,-4.8168,-4.8272,-4.8211,-4.8245,-4.8213,-4.8289,-4.8474,-4.8213,-4.8213,-4.8262,-4.8676,-4.8726,-4.8762,-4.8436,-4.8442,-4.8446,-4.8673,0,-4.7883,-4.8058,-4.8021,-4.8193,-4.8271,-4.8191,-4.8279,-4.8307,-4.8302,-4.8367,-4.836,-4.8435,-4.8348,-4.8368,-4.8439,-4.8437,-4.8557,-4.842,-4.8515,-4.8519,-4.851,-4.8801,-4.8855,-4.9068,-4.8702,-4.8706,-4.871,0,-4.817,-4.8219,-4.8399,-4.8416,-4.8447,-4.8527,-4.8582,-4.8645,-4.8674,-4.8665,-4.8702,-4.8656,-4.8756,-4.8647,-4.8785,-4.8692,-4.8728,-4.8733,-4.874,-4.8749,-4.8627,-4.8819,-4.9135,-4.9168,-4.8755,-4.8751,-4.8748,0,-4.8385,-4.8496,-4.8617,-4.8639,-4.8661,-4.872,-4.8732,-4.8755,-4.8795,-4.8843,-4.8869,-4.8928,-4.8961,-4.9008,-4.8979,-4.8901,-4.9122,-4.901,-4.9118,-4.9119,-4.9169,-4.9167,-4.9497,-4.9191,-4.919,-4.919,-4.9189,0,-4.8641,-4.8755,-4.8714,-4.8789,-4.8913,-4.8869,-4.8993,-4.8996,-4.9017,-4.9091,-4.9025,-4.9096,-4.9052,-4.912,-4.9097,-4.9215,-4.923,-4.9226,-4.9219,-4.9233,-4.9234,-4.9257,-4.9242,-4.9198,-4.9196,-4.9195,-4.9193,0,-4.8903,-4.8881,-4.9008,-4.9018,-4.9023,-4.9114,-4.9123,-4.9192,-4.9181,-4.9276,-4.9295,-4.9278,-4.9354,-4.9328,-4.941,-4.9395,-4.9545,-4.9518,-4.9535,-4.9529,-4.9638,-4.9629,-4.9997,-5.0043,-4.9706,-4.9709,-4.9712,0,-4.9069,-4.9154,-4.9173,-4.9218,-4.9234,-4.9307,-4.9347,-4.9306,-4.9351,-4.939,-4.9456,-4.9525,-4.9579,-4.9704,-4.9699,-4.976,-4.9735,-4.986,-4.9744,-4.9755,-4.9738,-4.9734,-4.9742,-4.9884,-4.9888,-4.9891,-4.9893,0,-4.9367,-4.935,-4.9411,-4.9468,-4.9518,-4.9561,-4.9598,-4.9638,-4.9599,-4.9653,-4.9729,-4.977,-4.9853,-4.9923,-4.9978,-4.999,-4.9937,-4.9929,-4.9958,-4.9974,-4.998,-4.9979,-4.9599,-4.9922,-4.9919,-4.9917,-4.9915,-4.9914,-4.9586,-4.9658,-4.9682,-4.9751,-4.9774,-4.981,-4.9876,-4.9872,-4.9935,-4.9998,-4.997,-5.0058,-5.0084,-5.0153,-5.0172,-5.024,-5.0192,-5.0233,-5.0244,-5.0255,-5.027,-4.9968,-5.025,-5.0249,-5.0249,-5.0248,-5.0247,0,-4.988,-4.9891,-4.9956,-5.0009,-5.0063,-5.0006,-5.0043,-5.0093,-5.0171,-5.02,-5.0253,-5.0341,-5.0408,-5.0407,-5.047,-5.0524,-5.0501,-5.0542,-5.0538,-5.0542,-5.0309,-5.0278,-5.056,-5.056,-5.056,-5.056,-5.056,-5.056,-5.004,-5.0158,-5.0145,-5.0274,-5.0283,-5.0369,-5.0395,-5.0428,-5.045,-5.055,-5.0606,-5.0604,-5.0621,-5.0684,-5.0743,-5.0741,-5.0767,-5.0818,-5.0807,-5.059,-5.0559,-5.0529,-5.05,-5.0824,-5.0824,-5.1035,-5.1037,-5.1038]},{"header":{"parameterUnit":"m.s-1","parameterCategory":1,"la1":30.2991,"la2":30.254,"lo1":-89.0895,"lo2":-89.0444,"dy":0.0017,"dx":0.0017,"nx":28,"ny":28,"refTime":"2025-02-13T09:00:00:Z","depth":0,"parameterNumber":3,"parameterNumberName":"V-component_of_WINDS"},"data":[0,0,0,0,0,0,0,0,0,0,0,0,0,0,0,0,0,0,0,0,0,0,0,0,0,0,0,0,0,0,0,0,0,0,0,0,0,0,0,0,0,0,0,0,0,0,0,0,0,0,0,0,0,0,0,0,0,0,-5.254,-5.254,0,-5.26,-5.2601,-5.2601,-5.2547,-5.2545,-5.2543,-5.2541,-5.2599,-5.2603,-5.2606,0,0,0,0,0,0,0,0,0,0,0,0,0,-5.2372,-5.2375,-5.2539,-5.254,-5.2541,-5.26,-5.2601,-5.2602,-5.2548,-5.2545,-5.2542,-5.254,-5.2598,-5.2602,-5.2607,0,0,0,0,0,0,0,0,0,0,0,0,0,-5.244,-5.2376,-5.2539,-5.2521,-5.252,-5.26,-5.2601,-5.2602,-5.2548,-5.2545,-5.2542,-5.2539,-5.2597,-5.2602,-5.2607,-5.2707,0,0,-5.2624,-5.2626,0,0,0,0,0,0,0,0,-5.2436,-5.2446,-5.2523,-5.2523,-5.2522,-5.2563,-5.2563,-5.2637,-5.2549,-5.2538,-5.2541,-5.2537,-5.259,-5.2595,-5.2614,-5.2709,-5.2712,-5.2624,-5.2628,-5.263,-5.2632,0,0,0,0,0,0,0,-5.2431,-5.2443,-5.2563,-5.2524,-5.2523,-5.2508,-5.2514,-5.2577,-5.2581,-5.2538,-5.2535,-5.2543,-5.2589,-5.2609,-5.2615,-5.2713,-5.2624,-5.2629,-5.2632,-5.2634,-5.289,-5.2893,0,0,0,0,0,0,-5.2429,-5.2439,-5.2561,-5.2565,-5.247,-5.2514,-5.2521,-5.2553,-5.258,-5.2582,-5.2545,-5.254,-5.2601,-5.2609,-5.2617,-5.2733,-5.263,-5.2635,-5.2638,-5.2886,-5.289,-5.2894,0,0,0,0,0,0,-5.2426,-5.2441,-5.2559,-5.2501,-5.2515,-5.2521,-5.2557,-5.2556,-5.2576,-5.2586,-5.2586,-5.2566,-5.2599,-5.2609,-5.2684,-5.2734,-5.2637,-5.2642,-5.2882,-5.2887,-5.2892,-5.2967,0,0,0,0,0,0,-5.2421,-5.244,-5.2479,-5.2503,-5.2519,-5.2627,-5.256,-5.2559,-5.2586,-5.2579,-5.2605,-5.2606,-5.2597,-5.2677,-5.269,-5.274,-5.2647,-5.2877,-5.2884,-5.2891,-5.296,-5.2975,-5.2987,0,0,0,0,0,-5.2415,-5.2497,-5.2481,-5.2496,-5.2568,-5.263,-5.2639,-5.2629,-5.259,-5.2629,-5.2634,-5.2605,-5.2727,-5.2685,-5.2699,-5.2752,-5.2874,-5.2882,-5.289,-5.2955,-5.2972,-5.2986,0,0,0,0,0,0,-5.2479,-5.25,-5.2482,-5.2575,-5.2601,-5.2621,-5.2669,-5.2648,-5.2685,-5.2677,-5.2661,-5.2667,-5.2746,-5.2756,-5.2709,-5.2848,-5.2794,-5.2805,-5.2838,-5.2855,-5.2868,-5.2863,-5.2651,0,0,0,0,0,-5.2503,-5.2554,-5.2569,-5.2649,-5.2664,-5.2664,-5.2691,-5.2681,-5.2707,-5.2717,-5.2729,-5.2754,-5.2798,-5.2827,-5.2868,-5.2962,-5.2965,-5.3005,-5.3018,-5.3029,-5.3038,-5.3086,-5.3103,-5.292,-5.292,-5.292,0,0,-5.2555,-5.2573,-5.2606,-5.2663,-5.2682,-5.2732,-5.2674,-5.2731,-5.2767,-5.2725,-5.2797,-5.2806,-5.2833,-5.2918,-5.2955,-5.2929,-5.3089,-5.3039,-5.3047,-5.3051,-5.3096,-5.3113,-5.3129,-5.2926,-5.2925,-5.2924,0,0,-5.2675,-5.2694,-5.2762,-5.2782,-5.2812,-5.2812,-5.2828,-5.2851,-5.2856,-5.2928,-5.2896,-5.2939,-5.3015,-5.3035,-5.3055,-5.318,-5.3154,-5.3194,-5.3262,-5.3309,-5.3324,-5.3336,-5.3379,-5.3395,-5.3204,-5.3204,-5.3204,0,-5.2735,-5.2811,-5.2799,-5.2858,-5.2883,-5.2848,-5.2915,-5.2934,-5.2976,-5.2993,-5.2963,-5.3056,-5.3072,-5.316,-5.319,-5.3208,-5.3224,-5.3191,-5.3323,-5.3335,-5.3347,-5.3387,-5.3404,-5.3208,-5.3208,-5.3207,-5.3207,0,-5.2882,-5.2936,-5.2987,-5.3028,-5.3058,-5.3121,-5.3117,-5.3149,-5.3135,-5.3137,-5.3209,-5.3227,-5.327,-5.329,-5.3277,-5.3375,-5.3357,-5.3325,-5.3271,-5.3369,-5.3407,-5.3422,-5.3215,-5.3213,-5.3212,-5.3211,0,0,-5.3044,-5.3077,-5.3096,-5.3113,-5.3143,-5.3183,-5.3243,-5.3285,-5.3312,-5.3341,-5.339,-5.3454,-5.3424,-5.3447,-5.3436,-5.3477,-5.3573,-5.344,-5.344,-5.3463,-5.3679,-5.3702,-5.372,-5.3555,-5.3558,-5.3561,-5.3676,0,-5.3164,-5.3269,-5.3259,-5.3358,-5.3406,-5.3372,-5.3424,-5.3447,-5.345,-5.3489,-5.3492,-5.3537,-5.3496,-5.3509,-5.3549,-5.3553,-5.3616,-5.3544,-5.3598,-5.36,-5.3592,-5.374,-5.3765,-5.3873,-5.3691,-5.3694,-5.3695,0,-5.3317,-5.3352,-5.3456,-5.3477,-5.3496,-5.3543,-5.358,-5.3619,-5.3643,-5.3642,-5.3667,-5.3648,-5.3706,-5.3651,-5.3729,-5.3681,-5.3702,-5.3707,-5.3711,-5.3715,-5.3653,-5.3747,-5.3908,-5.3924,-5.3719,-5.3717,-5.3715,0,-5.3423,-5.3496,-5.3567,-5.3583,-5.3609,-5.3642,-5.3654,-5.3675,-5.3701,-5.3732,-5.3748,-5.3787,-5.3807,-5.3836,-5.3827,-5.3788,-5.3906,-5.3851,-5.3905,-5.3906,-5.3931,-5.393,-5.4097,-5.3947,-5.3947,-5.3947,-5.3946,0,-5.3556,-5.3621,-5.3614,-5.3658,-5.3728,-5.3715,-5.3785,-5.3792,-5.3811,-5.3854,-5.3827,-5.3867,-5.3854,-5.3893,-5.3886,-5.3951,-5.396,-5.396,-5.3957,-5.3962,-5.3962,-5.3975,-5.3966,-5.3951,-5.395,-5.3949,-5.3949,0,-5.3686,-5.3684,-5.3759,-5.3777,-5.3783,-5.3834,-5.3849,-5.3889,-5.3889,-5.3944,-5.3956,-5.3957,-5.4001,-5.3995,-5.4045,-5.404,-5.412,-5.4109,-5.4112,-5.4109,-5.4163,-5.4158,-5.4344,-5.4367,-5.4204,-5.4205,-5.4207,0,-5.3771,-5.382,-5.3843,-5.387,-5.3885,-5.3929,-5.3955,-5.3943,-5.3971,-5.4001,-5.4036,-5.4079,-5.4112,-5.4184,-5.4188,-5.4225,-5.4214,-5.4276,-5.4219,-5.4222,-5.4213,-5.4209,-5.4213,-5.4287,-5.4289,-5.4291,-5.4292,0,-5.3921,-5.3917,-5.3956,-5.3995,-5.4026,-5.4056,-5.4082,-5.4105,-5.4096,-5.4128,-5.4174,-5.4199,-5.425,-5.4291,-5.4326,-5.4336,-5.4312,-5.431,-5.4324,-5.4329,-5.4328,-5.4327,-5.4141,-5.4306,-5.4304,-5.4303,-5.4303,-5.4302,-5.403,-5.407,-5.4093,-5.4136,-5.4155,-5.418,-5.4218,-5.4223,-5.4261,-5.4302,-5.4292,-5.4343,-5.4363,-5.4407,-5.4422,-5.446,-5.4437,-5.4458,-5.4463,-5.4468,-5.4474,-5.4323,-5.4466,-5.4466,-5.4465,-5.4465,-5.4465,0,-5.4177,-5.4189,-5.4229,-5.4267,-5.4301,-5.4276,-5.4304,-5.4333,-5.4378,-5.44,-5.4433,-5.4484,-5.4524,-5.453,-5.4568,-5.4597,-5.4587,-5.4607,-5.4604,-5.4606,-5.4493,-5.4476,-5.4615,-5.4615,-5.4614,-5.4614,-5.4614,-5.4614,-5.4257,-5.4325,-5.4323,-5.4399,-5.441,-5.446,-5.4478,-5.45,-5.4517,-5.4575,-5.4608,-5.4613,-5.4628,-5.4665,-5.47,-5.4701,-5.4715,-5.4739,-5.4736,-5.4629,-5.4615,-5.46,-5.4584,-5.4743,-5.4743,-5.4845,-5.4846,-5.4847]}]]